When you browse on this site, cookies collect data to enhance your experience and personalize the content and advertising you see.
Visit our Privacy Policy to learn more. By continuing to use the site, you agree to this use of cookies and data.
  • In Portugal
  • List of Countries
  • For 7 days
  • Water Temperature
  • Satellite Maps
  • Weather Map
  • Weather Widgets
  • user-avatar
    Login

    Hourly Weather Pischiki

    Today, 21 April, Sunday

    Time Temperature Precipitation Wind Pressure Humidity
    00:00 +5°C° 0 mm 2 mps 747 mmHg 85%
    01:00 +5°C° 0 mm 2 mps 747 mmHg 87%
    02:00 +4°C° 0 mm 2 mps 747 mmHg 91%
    03:00 +4°C° 0 mm 2 mps 747 mmHg 92%
    04:00 +2°C° 0 mm 3 mps 747 mmHg 93%
    05:00 +2°C° 0 mm 3 mps 747 mmHg 94%
    06:00 +4°C° 0 mm 3 mps 747 mmHg 88%
    07:00 +5°C° 0 mm 4 mps 747 mmHg 82%
    08:00 +7°C° 0 mm 4 mps 747 mmHg 76%
    09:00 +10°C° 0 mm 4 mps 747 mmHg 68%
    10:00 +11°C° 0 mm 4 mps 747 mmHg 60%
    11:00 +13°C° 0 mm 4 mps 748 mmHg 53%
    12:00 +14°C° 0.1 mm 4 mps 748 mmHg 49%
    13:00 +14°C° 0.1 mm 4 mps 748 mmHg 45%
    14:00 +15°C° 0 mm 4 mps 748 mmHg 40%
    15:00 +15°C° 0 mm 4 mps 748 mmHg 44%
    16:00 +14°C° 0 mm 3 mps 748 mmHg 48%
    17:00 +14°C° 0 mm 3 mps 748 mmHg 51%
    18:00 +12°C° 0 mm 3 mps 748 mmHg 55%
    19:00 +12°C° 0 mm 2 mps 748 mmHg 58%
    20:00 +10°C° 0 mm 2 mps 749 mmHg 62%
    21:00 +9°C° 0 mm 2 mps 749 mmHg 64%
    22:00 +8°C° 0 mm 2 mps 749 mmHg 67%
    23:00 +8°C° 0 mm 2 mps 750 mmHg 70%

    Tomorrow, 22 April, Monday

    Time Temperature Precipitation Wind Pressure Humidity
    00:00 +7°C° 0 mm 2 mps 750 mmHg 71%
    01:00 +7°C° 0 mm 2 mps 750 mmHg 72%
    02:00 +6°C° 0 mm 2 mps 750 mmHg 74%
    03:00 +7°C° 0 mm 1 mps 751 mmHg 74%
    04:00 +7°C° 0 mm 1 mps 751 mmHg 74%
    05:00 +7°C° 0 mm 1 mps 751 mmHg 74%
    06:00 +9°C° 0 mm 1 mps 751 mmHg 68%
    07:00 +11°C° 0 mm 1 mps 752 mmHg 62%
    08:00 +13°C° 0 mm 1 mps 752 mmHg 55%
    09:00 +14°C° 0 mm 2 mps 752 mmHg 48%
    10:00 +15°C° 0 mm 2 mps 752 mmHg 40%
    11:00 +16°C° 0 mm 2 mps 753 mmHg 33%
    12:00 +16°C° 0 mm 2 mps 752 mmHg 34%
    13:00 +16°C° 0 mm 2 mps 752 mmHg 35%
    14:00 +16°C° 0 mm 1 mps 752 mmHg 36%
    15:00 +16°C° 0 mm 1 mps 752 mmHg 37%
    16:00 +16°C° 0 mm 1 mps 752 mmHg 38%
    17:00 +16°C° 0 mm 1 mps 752 mmHg 39%
    18:00 +15°C° 0 mm 1 mps 752 mmHg 42%
    19:00 +13°C° 0 mm 1 mps 752 mmHg 45%
    20:00 +12°C° 0 mm 1 mps 752 mmHg 48%
    21:00 +11°C° 0 mm 1 mps 753 mmHg 50%
    22:00 +9°C° 0 mm 0 mps 753 mmHg 52%
    23:00 +8°C° 0 mm 0 mps 753 mmHg 54%

    Day after tomorrow, 23 April, Tuesday

    Time Temperature Precipitation Wind Pressure Humidity
    00:00 +9°C° 0 mm 1 mps 753 mmHg 56%
    01:00 +9°C° 0 mm 1 mps 753 mmHg 57%
    02:00 +8°C° 0 mm 1 mps 754 mmHg 59%
    03:00 +8°C° 0 mm 1 mps 754 mmHg 61%
    04:00 +8°C° 0 mm 1 mps 754 mmHg 62%
    05:00 +8°C° 0 mm 1 mps 754 mmHg 64%
    06:00 +10°C° 0 mm 1 mps 754 mmHg 60%
    07:00 +11°C° 0 mm 1 mps 754 mmHg 57%
    08:00 +13°C° 0 mm 2 mps 754 mmHg 54%
    09:00 +14°C° 0 mm 2 mps 754 mmHg 49%
    10:00 +16°C° 0 mm 2 mps 754 mmHg 44%
    11:00 +17°C° 0 mm 2 mps 754 mmHg 39%
    12:00 +17°C° 0 mm 2 mps 754 mmHg 38%
    13:00 +18°C° 0 mm 1 mps 754 mmHg 36%
    14:00 +19°C° 0 mm 1 mps 754 mmHg 35%
    15:00 +19°C° 0 mm 1 mps 753 mmHg 37%
    16:00 +18°C° 0 mm 1 mps 753 mmHg 38%
    17:00 +18°C° 0 mm 1 mps 753 mmHg 40%
    18:00 +16°C° 0 mm 1 mps 753 mmHg 43%
    19:00 +14°C° 0 mm 1 mps 753 mmHg 46%
    20:00 +11°C° 0 mm 0 mps 753 mmHg 50%
    21:00 +10°C° 0 mm 0 mps 753 mmHg 51%
    22:00 +10°C° 0 mm 0 mps 753 mmHg 53%
    23:00 +10°C° 0 mm 1 mps 753 mmHg 54%

    24 April, Wednesday

    Time Temperature Precipitation Wind Pressure Humidity
    00:00 +9°C° 0 mm 0 mps 753 mmHg 55%
    01:00 +8°C° 0 mm 0 mps 753 mmHg 57%
    02:00 +8°C° 0 mm 0 mps 754 mmHg 58%
    03:00 +8°C° 0 mm 0 mps 754 mmHg 59%
    04:00 +7°C° 0 mm 0 mps 754 mmHg 60%
    05:00 +7°C° 0 mm 0 mps 754 mmHg 61%
    06:00 +9°C° 0 mm 0 mps 754 mmHg 57%
    07:00 +11°C° 0 mm 0 mps 754 mmHg 52%
    08:00 +13°C° 0 mm 0 mps 754 mmHg 48%
    09:00 +16°C° 0 mm 1 mps 754 mmHg 44%
    10:00 +18°C° 0 mm 1 mps 754 mmHg 40%
    11:00 +19°C° 0 mm 1 mps 754 mmHg 36%
    12:00 +19°C° 0 mm 2 mps 754 mmHg 35%
    13:00 +19°C° 0 mm 2 mps 754 mmHg 35%
    14:00 +19°C° 0 mm 2 mps 753 mmHg 34%
    15:00 +19°C° 0 mm 2 mps 753 mmHg 36%
    16:00 +19°C° 0 mm 2 mps 753 mmHg 38%
    17:00 +19°C° 0 mm 2 mps 752 mmHg 40%
    18:00 +17°C° 0 mm 2 mps 752 mmHg 44%
    19:00 +15°C° 0 mm 1 mps 752 mmHg 49%
    20:00 +13°C° 0 mm 1 mps 752 mmHg 53%
    21:00 +13°C° 0 mm 1 mps 753 mmHg 55%
    22:00 +12°C° 0 mm 1 mps 753 mmHg 56%
    23:00 +11°C° 0 mm 1 mps 753 mmHg 58%

    25 April, Thursday

    Time Temperature Precipitation Wind Pressure Humidity
    00:00 +11°C° 0 mm 1 mps 753 mmHg 59%
    01:00 +11°C° 0 mm 1 mps 753 mmHg 60%
    02:00 +10°C° 0 mm 1 mps 753 mmHg 61%
    03:00 +10°C° 0 mm 1 mps 753 mmHg 63%
    04:00 +10°C° 0 mm 1 mps 753 mmHg 64%
    05:00 +9°C° 0 mm 1 mps 753 mmHg 66%
    06:00 +11°C° 0 mm 1 mps 753 mmHg 62%
    07:00 +13°C° 0 mm 2 mps 753 mmHg 58%
    08:00 +15°C° 0 mm 2 mps 753 mmHg 54%
    09:00 +16°C° 0 mm 2 mps 753 mmHg 50%
    10:00 +17°C° 0 mm 3 mps 753 mmHg 46%
    11:00 +19°C° 0 mm 4 mps 753 mmHg 42%
    12:00 +19°C° 0 mm 4 mps 753 mmHg 41%
    13:00 +20°C° 0 mm 4 mps 752 mmHg 40%
    14:00 +20°C° 0 mm 4 mps 752 mmHg 39%
    15:00 +20°C° 0 mm 4 mps 751 mmHg 42%
    16:00 +20°C° 0 mm 3 mps 751 mmHg 44%
    17:00 +19°C° 0 mm 3 mps 750 mmHg 46%
    18:00 +18°C° 0 mm 3 mps 750 mmHg 51%
    19:00 +16°C° 0 mm 3 mps 750 mmHg 56%
    20:00 +14°C° 0 mm 2 mps 750 mmHg 61%
    21:00 +13°C° 0 mm 2 mps 750 mmHg 63%
    22:00 +12°C° 0 mm 3 mps 750 mmHg 64%
    23:00 +11°C° 0 mm 3 mps 750 mmHg 66%

    26 April, Friday

    Time Temperature Precipitation Wind Pressure Humidity
    00:00 +11°C° 0 mm 3 mps 749 mmHg 67%
    01:00 +10°C° 0 mm 3 mps 749 mmHg 68%
    02:00 +10°C° 0 mm 3 mps 749 mmHg 69%
    03:00 +9°C° 0 mm 3 mps 749 mmHg 70%
    04:00 +9°C° 0 mm 3 mps 749 mmHg 72%
    05:00 +9°C° 0 mm 3 mps 748 mmHg 73%
    06:00 +11°C° 0 mm 3 mps 748 mmHg 69%
    07:00 +12°C° 0 mm 4 mps 748 mmHg 64%
    08:00 +14°C° 0 mm 4 mps 748 mmHg 60%
    09:00 +16°C° 0 mm 5 mps 747 mmHg 55%
    10:00 +17°C° 0 mm 6 mps 747 mmHg 50%
    11:00 +20°C° 0 mm 6 mps 747 mmHg 45%
    12:00 +20°C° 0 mm 6 mps 746 mmHg 44%
    13:00 +21°C° 0 mm 6 mps 746 mmHg 43%
    14:00 +21°C° 0 mm 6 mps 745 mmHg 41%
    15:00 +21°C° 0 mm 5 mps 745 mmHg 44%
    16:00 +21°C° 0 mm 4 mps 745 mmHg 47%
    17:00 +21°C° 0 mm 4 mps 744 mmHg 49%
    18:00 +19°C° 0 mm 3 mps 744 mmHg 54%
    19:00 +17°C° 0 mm 3 mps 744 mmHg 58%
    20:00 +14°C° 0 mm 3 mps 744 mmHg 62%
    21:00 +13°C° 0 mm 3 mps 744 mmHg 62%
    22:00 +13°C° 0 mm 3 mps 744 mmHg 61%
    23:00 +12°C° 0 mm 3 mps 744 mmHg 61%
    Show more